Temp
7 6 7 7 5 4 4 6 6 8 6 6 3 1 1 3 3 3 3 3 3 3 3 3 3 3 3 3 2 1 1 0 0 -0 -1 -1 -1 -1 -2 -2 -2 -2 -2 -2
1 5 4 7 5 4 6 6 5 6 6 3 1 2 1 2 2 2 2 2 2 2 2 2 2 2 2 1 0 -0 -1 -1 -1 -1 -2 -2 -2 -2 -2 -2 -2 -3 -3 -3
6 4 3 3 5 4 4 4 5 5 6 -1 -1 1 1 2 2 2 2 2 2 2 2 2 1 1 0 -0 -1 -1 -1 -1 -1 -2 -2 -2 -2 -2 -3 -3 -3 -3 -3 -3
-0 1 4 6 4 5 5 4 3 3 1 1 1 1 2 2 2 1 1 1 2 1 1 1 0 -0 -1 -1 -1 -1 -2 -2 -2 -2 -3 -3 -3 -3 -4 -4 -4 -4 -4 -4
3 1 5 5 4 3 5 6 1 0 -1 -0 1 1 0 1 1 1 1 1 1 0 -0 -1 -1 -1 -2 -2 -2 -2 -2 -2 -2 -3 -3 -4 -4 -4 -5 -5 -5 -5 -5 -6
0 3 5 6 4 4 6 5 0 1 0 0 2 1 -1 0 1 1 0 -0 -0 -1 -1 -1 -1 -2 -2 -2 -2 -2 -3 -3 -3 -4 -4 -5 -5 -5 -5 -6 -6 -6 -6 -6
4 3 4 4 3 5 5 6 1 1 1 1 -0 1 1 0 0 -0 -0 -0 -1 -1 -1 -1 -1 -2 -2 -2 -2 -3 -3 -4 -4 -4 -5 -5 -5 -6 -6 -6 -6 -6 -7 -7
4 3 4 2 3 4 2 0 1 1 1 1 1 0 0 0 -0 -1 -1 -1 -1 -1 -2 -2 -2 -2 -2 -3 -3 -4 -4 -5 -5 -5 -6 -6 -6 -6 -6 -7 -7 -7 -7 -7
5 5 0 1 2 3 2 1 1 2 1 1 1 -0 -1 -1 -1 -1 -1 -1 -2 -2 -2 -2 -2 -3 -3 -4 -4 -5 -5 -6 -6 -6 -6 -6 -7 -7 -7 -7 -7 -8 -8 -8
3 -0 -1 -0 1 2 2 2 2 1 1 0 -0 -1 -1 -1 -1 -1 -2 -2 -2 -2 -2 -2 -3 -4 -5 -5 -5 -6 -6 -6 -6 -7 -7 -7 -7 -7 -8 -8 -8 -8 -8 -8
-2 -2 -1 -2 -0 1 1 1 1 0 0 -0 -1 -1 -1 -1 -2 -2 -3 -2 -2 -3 -4 -4 -4 -5 -5 -6 -6 -7 -7 -7 -7 -7 -7 -7 -8 -8 -8 -8 -8 -8 -7 -7
0 -2 -2 -2 -0 1 1 1 0 -0 -1 -1 -1 -1 -2 -2 -3 -3 -3 -3 -3 -4 -5 -5 -5 -6 -6 -7 -7 -7 -8 -8 -8 -8 -8 -8 -9 -9 -8 -8 -8 -8 -8 -7
-1 -2 -1 -1 0 1 0 -0 -0 -1 -1 -1 -2 -2 -3 -3 -3 -3 -4 -4 -5 -5 -6 -6 -6 -7 -7 -7 -8 -8 -8 -8 -8 -9 -9 -9 -8 -8 -8 -8 -9 -8 -8 -8
1 0 -2 -0 -0 -0 -0 -1 -1 -1 -2 -2 -3 -3 -4 -4 -4 -4 -4 -5 -5 -6 -6 -7 -7 -7 -7 -8 -8 -8 -8 -8 -9 -9 -8 -8 -9 -9 -9 -10 -11 -10 -9 -10
-0 1 1 -0 -1 -1 -1 -1 -2 -2 -2 -3 -3 -4 -4 -4 -4 -4 -5 -6 -6 -7 -7 -7 -8 -8 -8 -8 -8 -8 -8 -9 -9 -9 -9 -9 -9 -10 -10 -11 -11 -11 -10 -9
-0 0 -0 -0 -1 -1 -2 -2 -2 -3 -3 -3 -4 -4 -5 -5 -5 -5 -6 -7 -7 -8 -8 -8 -8 -8 -8 -8 -8 -8 -8 -9 -9 -9 -9 -9 -9 -10 -11 -11 -10 -10 -10 -10
-1 -2 -1 -2 -2 -2 -2 -3 -3 -3 -4 -4 -4 -5 -5 -5 -6 -6 -7 -8 -8 -8 -8 -9 -9 -9 -9 -8 -9 -8 -9 -9 -9 -9 -9 -10 -10 -11 -10 -10 -10 -10 -10 -10
-0 -1 -1 -2 -2 -3 -3 -3 -4 -4 -4 -4 -5 -5 -6 -6 -7 -7 -8 -8 -8 -8 -8 -9 -9 -9 -9 -9 -9 -9 -9 -9 -9 -9 -10 -10 -11 -10 -10 -10 -10 -10 -10 -10
-1 -1 -2 -2 -3 -3 -4 -4 -4 -5 -5 -5 -6 -7 -7 -7 -8 -8 -8 -8 -9 -9 -9 -9 -9 -9 -9 -9 -9 -9 -9 -9 -10 -10 -10 -10 -10 -10 -10 -10 -10 -10 -10 -10
-2 -2 -3 -3 -3 -4 -4 -4 -5 -5 -6 -6 -7 -7 -8 -8 -8 -9 -9 -9 -9 -10 -10 -9 -10 -9 -9 -9 -9 -9 -10 -10 -10 -10 -10 -10 -10 -10 -10 -10 -10 -10 -10 -10
-3 -3 -3 -4 -4 -5 -5 -5 -5 -6 -6 -7 -8 -8 -8 -9 -9 -10 -10 -10 -9 -10 -10 -10 -10 -10 -10 -10 -10 -10 -10 -10 -10 -10 -10 -10 -10 -10 -10 -10 -10 -10 -10 -10
-4 -4 -4 -5 -5 -5 -5 -6 -6 -7 -7 -8 -8 -9 -9 -9 -10 -10 -10 -10 -10 -10 -10 -10 -10 -10 -10 -9 -10 -10 -10 -10 -10 -10 -10 -10 -10 -10 -10 -10 -10 -10 -10 -10
-4 -5 -5 -5 -6 -6 -6 -7 -7 -8 -9 -9 -10 -10 -10 -10 -10 -11 -10 -10 -10 -10 -10 -10 -10 -10 -10 -10 -10 -10 -10 -10 -10 -10 -10 -10 -10 -10 -10 -10 -10 -10 -10 -10
-5 -5 -6 -6 -7 -7 -8 -8 -9 -9 -10 -10 -10 -11 -11 -10 -10 -10 -10 -10 -10 -10 -10 -10 -10 -10 -10 -10 -10 -10 -10 -10 -10 -10 -10 -10 -10 -10 -10 -10 -10 -11 -10 -11
-6 -7 -7 -8 -8 -9 -9 -10 -10 -11 -11 -11 -11 -11 -11 -11 -11 -10 -10 -10 -10 -10 -10 -10 -10 -10 -10 -10 -11 -10 -10 -10 -11 -10 -10 -10 -10 -11 -11 -11 -11 -11 -11 -11
-7 -8 -8 -9 -10 -10 -10 -11 -11 -12 -12 -11 -10 -11 -11 -11 -10 -10 -10 -10 -10 -10 -10 -10 -10 -10 -10 -11 -11 -11 -11 -11 -11 -11 -11 -11 -11 -11 -11 -11 -11 -11 -11 -11
-8 -9 -9 -10 -11 -11 -11 -12 -12 -12 -12 -12 -11 -11 -11 -10 -10 -10 -10 -10 -10 -10 -10 -10 -10 -11 -11 -12 -11 -11 -11 -11 -11 -11 -11 -11 -12 -12 -12 -12 -12 -11 -11 -11
Height
1466 1468 1468 1470 1476 1485 1492 1485 1489 1480 1487 1484 1487 1492 1496 1501 1507 1510 1513 1517 1520 1522 1523 1524 1524 1524 1523 1522 1521 1519 1518 1515 1513 1510 1506 1503 1500 1497 1493 1489 1484 1480 1475 1471
1487 1471 1474 1469 1476 1481 1479 1480 1483 1482 1483 1482 1485 1490 1497 1500 1504 1508 1512 1515 1517 1519 1520 1520 1520 1520 1519 1518 1517 1515 1512 1509 1506 1502 1499 1496 1493 1489 1485 1480 1475 1471 1466 1462
1469 1476 1480 1485 1470 1472 1473 1473 1473 1481 1473 1482 1490 1491 1495 1501 1505 1508 1511 1514 1515 1516 1516 1516 1516 1515 1514 1512 1511 1509 1506 1502 1499 1495 1491 1488 1483 1478 1473 1468 1464 1460 1455 1451
1493 1486 1486 1457 1459 1459 1463 1468 1471 1473 1476 1479 1482 1490 1497 1501 1504 1508 1511 1513 1513 1513 1513 1513 1512 1511 1509 1507 1505 1501 1498 1494 1491 1487 1482 1477 1472 1467 1462 1458 1453 1448 1443 1439
1478 1486 1463 1460 1460 1463 1460 1460 1467 1471 1476 1479 1484 1491 1499 1502 1505 1507 1509 1510 1510 1511 1510 1509 1508 1506 1504 1501 1498 1494 1490 1486 1482 1478 1472 1467 1462 1458 1453 1448 1442 1437 1433 1428
1477 1474 1462 1450 1452 1452 1451 1464 1462 1465 1474 1479 1485 1492 1497 1500 1503 1504 1506 1507 1507 1507 1506 1505 1503 1500 1497 1494 1490 1486 1482 1478 1474 1470 1465 1459 1454 1448 1443 1439 1432 1428 1420 1417
1453 1460 1455 1447 1450 1453 1465 1456 1459 1466 1472 1479 1485 1489 1494 1499 1502 1503 1503 1503 1502 1501 1500 1499 1497 1494 1490 1486 1483 1479 1474 1469 1464 1460 1456 1451 1445 1441 1436 1430 1424 1418 1411 1406
1454 1459 1460 1446 1453 1456 1455 1458 1461 1467 1474 1480 1485 1490 1494 1497 1499 1500 1499 1498 1497 1496 1495 1493 1491 1487 1483 1479 1475 1471 1465 1460 1455 1452 1448 1443 1437 1431 1427 1422 1414 1407 1401 1395
1439 1442 1447 1449 1450 1451 1452 1454 1465 1471 1477 1480 1485 1490 1493 1495 1496 1496 1495 1494 1493 1491 1489 1488 1485 1481 1476 1472 1467 1462 1458 1453 1448 1442 1438 1435 1428 1422 1417 1413 1406 1399 1394 1387
1441 1453 1453 1453 1454 1455 1458 1462 1469 1474 1478 1482 1486 1489 1491 1492 1492 1492 1491 1489 1487 1485 1483 1480 1479 1475 1471 1466 1462 1457 1451 1446 1441 1435 1429 1426 1421 1415 1410 1404 1398 1393 1387 1380
1454 1454 1454 1456 1458 1461 1465 1469 1473 1477 1480 1483 1485 1487 1489 1489 1489 1488 1487 1485 1483 1480 1477 1475 1472 1468 1464 1460 1456 1450 1445 1439 1434 1429 1423 1417 1412 1407 1402 1398 1393 1386 1380 1374
1437 1444 1448 1456 1460 1464 1467 1471 1475 1477 1480 1483 1484 1485 1486 1485 1485 1483 1482 1480 1477 1475 1472 1468 1464 1460 1457 1454 1450 1445 1438 1432 1427 1422 1415 1411 1404 1396 1395 1389 1384 1379 1374 1368
1440 1445 1449 1455 1461 1466 1468 1472 1475 1478 1480 1482 1482 1482 1482 1482 1481 1480 1478 1476 1473 1469 1465 1462 1458 1453 1450 1446 1441 1436 1432 1427 1422 1417 1411 1405 1399 1392 1382 1378 1375 1370 1364 1358
1443 1446 1452 1456 1461 1466 1469 1472 1476 1478 1479 1479 1479 1479 1479 1478 1477 1475 1473 1470 1467 1463 1459 1455 1451 1447 1443 1438 1434 1430 1426 1422 1417 1411 1405 1400 1395 1388 1381 1372 1364 1358 1354 1348
1445 1446 1449 1457 1462 1466 1470 1473 1475 1477 1477 1476 1476 1475 1474 1473 1472 1470 1468 1464 1460 1456 1453 1449 1445 1440 1436 1433 1428 1425 1421 1416 1411 1406 1401 1396 1389 1382 1376 1370 1363 1354 1347 1342
1447 1450 1456 1460 1464 1468 1471 1472 1473 1474 1474 1472 1472 1471 1471 1469 1467 1464 1461 1457 1453 1449 1446 1442 1438 1435 1431 1427 1424 1420 1415 1411 1407 1401 1395 1390 1385 1379 1373 1367 1360 1353 1346 1339
1450 1457 1460 1463 1466 1469 1470 1471 1471 1470 1469 1469 1468 1467 1465 1462 1459 1457 1454 1451 1448 1444 1441 1436 1433 1429 1426 1423 1419 1414 1410 1406 1402 1397 1392 1387 1382 1377 1371 1365 1358 1352 1346 1339
1457 1459 1462 1464 1466 1468 1468 1468 1468 1467 1466 1464 1463 1461 1459 1456 1453 1449 1447 1444 1441 1437 1434 1431 1427 1424 1421 1418 1414 1411 1407 1402 1397 1393 1389 1385 1380 1376 1370 1365 1359 1353 1346 1340
1460 1461 1463 1464 1465 1465 1464 1464 1463 1462 1461 1459 1457 1455 1453 1451 1448 1444 1440 1437 1434 1430 1428 1425 1422 1420 1417 1413 1411 1407 1403 1399 1395 1392 1388 1384 1380 1375 1370 1365 1359 1354 1348 1342
1460 1462 1463 1463 1462 1462 1461 1460 1459 1457 1456 1454 1452 1450 1447 1445 1441 1438 1435 1432 1431 1427 1424 1421 1418 1416 1413 1410 1407 1404 1400 1397 1394 1391 1387 1383 1379 1375 1370 1366 1361 1355 1350 1345
1461 1461 1461 1460 1460 1459 1458 1456 1454 1452 1451 1448 1446 1443 1440 1438 1436 1432 1431 1428 1426 1423 1421 1419 1417 1414 1411 1408 1405 1403 1400 1397 1394 1391 1387 1384 1380 1376 1372 1367 1362 1358 1353 1348
1459 1459 1458 1457 1457 1455 1454 1451 1449 1446 1444 1442 1440 1438 1435 1433 1431 1429 1428 1425 1422 1420 1418 1416 1415 1412 1410 1407 1405 1403 1400 1397 1395 1392 1389 1386 1382 1378 1374 1369 1365 1361 1357 1352
1457 1456 1455 1453 1452 1450 1448 1446 1443 1442 1439 1437 1435 1433 1430 1428 1427 1424 1422 1422 1420 1419 1417 1415 1413 1411 1409 1407 1405 1403 1401 1399 1396 1393 1391 1388 1385 1382 1377 1373 1369 1365 1361 1357
1454 1453 1451 1450 1448 1446 1443 1442 1439 1437 1435 1433 1431 1429 1426 1424 1423 1423 1421 1420 1419 1417 1415 1414 1412 1410 1409 1407 1406 1404 1402 1400 1398 1396 1394 1391 1388 1384 1380 1376 1372 1369 1365 1360
1451 1449 1447 1445 1443 1440 1438 1436 1434 1432 1430 1428 1427 1425 1424 1422 1421 1420 1419 1418 1417 1415 1414 1413 1411 1410 1409 1408 1407 1405 1403 1402 1400 1399 1396 1393 1390 1386 1383 1379 1375 1371 1367 1363
1446 1444 1442 1439 1437 1435 1433 1431 1429 1428 1426 1424 1423 1422 1421 1420 1419 1418 1418 1417 1415 1414 1413 1412 1411 1410 1409 1408 1408 1407 1405 1404 1402 1400 1398 1395 1392 1389 1386 1382 1379 1375 1371 1367
1443 1440 1438 1436 1434 1432 1430 1429 1426 1425 1423 1422 1420 1419 1419 1418 1418 1417 1416 1415 1414 1414 1413 1413 1412 1411 1411 1410 1409 1408 1407 1406 1404 1401 1399 1396 1394 1391 1388 1385 1382 1378 1375 1371
Wind_Speed
2 3 4 4 7 11 8 6 6 4 9 7 9 9 17 24 22 21 19 16 11 6 3 4 8 13 17 21 22 23 24 27 29 30 31 32 34 35 35 37 40 38 38 37
3 2 5 1 4 10 8 1 6 2 4 2 9 20 22 25 24 20 17 12 7 2 5 10 14 17 19 20 22 24 27 29 30 31 33 34 35 36 40 42 38 38 42 41
3 2 4 4 10 10 5 5 6 8 5 7 4 15 23 22 18 16 12 7 1 6 10 13 15 18 20 22 24 27 30 32 32 32 34 35 37 40 41 41 40 41 45 44
3 2 2 3 2 3 5 4 5 4 4 6 14 20 20 17 18 14 6 2 6 10 13 15 18 20 22 24 26 28 29 30 31 32 35 37 40 42 43 42 43 43 44 44
5 4 4 1 5 7 8 6 7 8 7 17 27 21 12 16 12 5 1 5 9 12 14 16 18 19 21 24 25 28 31 33 34 36 38 41 42 43 44 43 44 44 45 43
4 5 8 3 2 6 4 4 10 13 14 20 18 5 4 14 5 2 4 8 11 13 14 16 17 19 22 26 29 33 35 36 37 38 39 41 43 44 44 42 43 42 45 42
3 2 5 4 6 6 5 4 16 22 23 21 5 6 19 10 3 3 8 12 13 14 16 18 20 23 27 31 34 35 36 38 40 40 40 41 41 41 41 41 41 41 42 42
3 2 7 9 6 8 5 16 25 28 24 18 19 15 10 4 2 8 13 15 16 18 19 21 23 27 32 34 35 35 37 38 39 40 39 39 38 38 38 38 39 40 40 41
3 2 3 1 0 7 19 29 26 25 19 18 15 10 4 1 8 13 16 18 18 20 23 24 27 29 34 34 34 35 36 37 38 39 38 36 36 37 39 38 38 39 38 39
4 3 4 13 16 17 25 26 23 20 18 13 11 5 3 9 13 16 17 18 20 23 26 30 30 30 30 31 31 32 34 37 38 37 37 35 36 38 38 38 38 38 39 41
4 3 10 10 18 19 23 22 20 15 12 9 4 3 9 12 13 14 16 20 22 26 28 31 31 30 29 30 30 31 33 35 35 35 37 39 39 37 34 35 34 37 39 41
3 13 6 11 21 22 23 20 16 14 10 4 3 8 11 12 12 15 19 21 24 26 28 30 30 30 29 27 28 31 33 33 33 35 35 34 34 38 34 35 37 37 37 37
6 20 13 23 23 21 20 17 13 8 3 3 7 10 9 11 13 17 20 23 25 27 28 29 29 28 28 29 28 27 28 31 33 30 30 35 39 39 42 39 34 31 30 32
15 21 18 28 23 17 16 13 8 2 4 8 10 10 11 14 17 20 23 25 26 27 28 26 26 29 30 26 24 24 27 29 28 32 32 34 36 38 37 34 37 38 31 27
20 13 25 25 21 17 12 7 1 4 7 9 10 11 14 18 22 25 27 26 26 25 25 26 29 30 24 23 23 23 26 27 28 29 32 36 33 32 31 32 34 34 33 30
23 25 24 22 16 12 6 2 6 8 10 12 12 14 17 20 24 27 26 24 24 25 26 28 27 24 22 21 21 24 26 26 25 33 31 29 28 27 29 29 29 30 31 31
28 21 18 15 10 5 2 6 9 12 13 14 15 17 21 24 26 26 25 23 23 25 27 24 22 21 19 20 23 26 24 26 31 26 25 24 22 26 26 26 27 28 28 27
15 15 11 7 3 2 6 9 11 12 15 17 20 21 22 23 25 25 25 25 27 26 23 21 19 18 20 21 24 21 25 25 23 22 21 20 21 21 22 23 24 25 26 26
10 8 5 1 5 9 12 12 14 16 19 20 21 21 21 22 23 24 25 27 25 24 23 18 16 18 20 22 20 23 21 20 18 17 17 18 19 19 21 21 22 23 24 24
5 0 4 8 11 14 14 15 18 21 20 20 21 21 22 23 23 25 24 23 20 20 18 15 18 19 20 20 21 18 17 16 15 15 15 16 18 19 19 19 21 22 23 24
2 6 8 10 11 12 15 19 21 21 21 20 20 22 23 23 23 21 20 22 18 14 13 15 18 18 17 20 16 14 14 13 13 14 15 16 17 17 19 20 21 22 23 23
6 8 9 12 15 18 18 19 20 21 20 20 20 21 22 22 20 19 17 16 15 12 13 15 18 14 16 13 11 10 11 11 12 13 14 15 16 18 20 22 22 23 24 25
9 11 14 18 19 19 18 19 19 19 19 18 20 19 19 18 19 18 17 12 11 10 14 17 10 12 10 9 8 9 10 11 13 14 14 15 16 17 18 20 21 22 23 25
13 16 17 17 17 18 18 17 17 16 17 18 16 17 17 17 14 8 12 12 11 11 14 6 9 8 6 7 7 7 9 10 12 12 12 14 15 16 16 16 18 20 21 22
15 15 16 17 17 16 18 17 17 17 15 16 16 13 12 10 13 12 9 10 11 12 6 5 6 5 4 4 5 7 8 10 11 11 13 15 16 17 18 18 19 20 20 21
16 17 17 18 17 17 17 16 16 16 18 17 12 10 8 9 9 8 9 10 9 5 4 4 3 4 3 1 3 5 8 8 9 12 14 14 15 15 17 18 19 20 22 23
17 17 17 16 14 14 15 14 16 17 13 13 12 6 7 6 6 7 7 6 3 3 2 3 3 6 7 8 8 6 8 9 11 13 13 14 15 16 17 16 16 16 16 17
Wind_Direction
71 111 121 147 168 171 186 184 169 229 193 207 197 180 168 161 154 155 158 159 164 174 214 294 309 315 313 310 309 310 310 308 306 307 306 303 301 301 302 304 307 307 308 306
9 35 45 104 134 184 213 172 268 144 251 111 144 153 154 160 157 155 156 159 164 199 305 315 316 313 309 309 308 306 304 302 304 303 305 304 303 304 304 305 305 305 306 306
208 70 86 333 211 188 184 197 156 199 219 147 133 154 160 159 160 153 149 153 217 306 312 310 308 307 306 305 303 300 300 303 303 301 300 301 303 305 307 307 305 301 303 304
149 24 289 239 47 198 184 169 150 113 136 157 149 152 153 159 151 143 148 250 307 313 312 308 304 302 301 301 302 304 304 305 307 306 305 308 310 310 310 309 306 306 305 304
148 199 303 181 194 161 173 238 179 145 129 126 133 125 123 145 142 130 20 331 321 317 310 302 301 304 304 306 308 309 310 310 309 309 311 313 312 311 310 310 308 307 304 301
152 163 210 250 188 165 130 296 165 145 142 140 144 144 172 157 143 79 335 321 314 310 308 309 314 310 309 310 312 313 314 312 311 311 312 312 311 310 310 309 305 303 300 299
162 197 286 226 164 149 110 237 145 146 146 145 104 114 143 155 153 324 325 322 317 314 314 314 313 311 310 312 312 314 313 311 311 311 313 313 311 310 310 308 308 307 305 304
109 96 276 153 121 173 146 120 144 148 143 121 126 125 133 152 298 320 324 325 320 314 312 313 313 312 312 312 315 314 313 311 312 313 313 312 313 313 313 314 312 309 304 302
172 162 23 82 187 146 147 141 142 139 136 131 131 130 129 342 325 325 323 319 318 314 313 314 314 314 313 315 315 314 313 312 313 313 314 316 316 316 316 316 312 307 302 299
107 7 67 101 116 127 140 134 136 134 130 127 124 110 359 329 321 317 316 318 318 315 314 314 315 315 313 314 314 313 312 313 313 315 317 317 317 319 316 311 308 302 301 299
80 64 87 93 118 130 130 129 130 127 125 125 106 352 319 313 314 315 317 318 316 315 314 313 314 315 316 316 315 313 311 313 316 318 319 319 319 316 310 309 307 301 299 299
165 161 119 150 152 152 144 140 140 139 135 129 327 314 307 308 312 315 316 317 316 313 312 312 315 316 316 317 315 314 313 316 318 318 318 314 312 313 313 308 309 304 300 297
141 150 133 153 157 153 144 143 139 135 121 313 310 306 299 303 312 316 318 317 314 313 313 314 314 315 318 319 318 315 315 317 318 313 316 322 325 317 317 317 315 312 308 299
161 166 125 152 152 151 144 141 140 125 317 310 309 300 295 303 310 315 318 317 315 313 312 315 316 317 322 321 319 318 317 318 319 321 327 326 320 313 321 329 325 329 328 324
146 170 156 147 139 141 143 144 210 311 309 309 304 301 299 305 311 315 317 317 315 314 315 319 320 321 323 321 320 319 320 325 323 324 317 319 323 328 332 335 332 332 334 338
128 128 134 136 136 140 150 263 306 315 315 314 310 304 302 305 309 312 316 318 317 316 319 321 320 321 322 322 321 322 327 328 324 321 325 328 334 340 343 339 340 343 344 343
125 122 129 129 137 149 286 312 314 315 315 315 312 309 308 309 311 315 318 320 315 317 319 322 321 323 324 328 328 329 333 322 322 325 331 336 344 345 340 344 348 351 351 352
129 130 131 132 133 329 319 317 314 314 317 316 312 309 310 312 315 316 318 318 317 321 325 324 325 326 329 330 332 331 319 324 330 335 338 344 351 347 354 356 359 358 358 2
134 139 138 34 336 329 325 321 318 316 316 314 311 310 311 312 312 314 318 318 322 327 327 329 328 329 332 331 335 326 330 334 338 343 349 355 355 0 1 4 5 6 6 6
114 99 300 303 309 313 314 313 312 312 314 310 308 309 311 315 316 318 317 317 324 323 324 330 331 334 334 333 333 335 339 342 348 355 2 4 6 7 8 13 16 17 17 18
324 314 308 304 305 308 311 311 309 309 311 311 311 312 313 314 316 317 318 318 332 328 333 332 336 338 333 332 339 345 351 0 7 12 14 14 16 18 23 24 25 25 24 22
321 319 315 312 310 310 312 311 310 311 312 312 310 310 311 313 314 315 321 324 328 334 338 331 332 331 331 341 350 2 13 22 28 28 26 27 32 33 34 35 32 33 34 31
324 317 314 313 313 314 314 314 312 310 309 309 311 312 311 312 315 320 325 337 331 340 322 325 328 330 344 359 11 24 30 36 40 38 42 43 38 37 36 35 33 31 31 31
317 315 314 313 313 311 310 313 311 311 310 310 311 310 310 311 317 320 313 323 326 320 323 330 326 342 3 20 31 40 41 43 44 44 42 33 30 27 28 27 27 22 23 26
318 318 317 316 316 316 316 316 313 315 312 312 314 311 306 303 308 325 325 323 324 324 327 320 333 355 7 20 39 40 42 51 51 42 29 23 23 32 33 32 33 31 29 28
326 325 323 321 320 318 317 319 316 313 314 315 317 311 302 303 308 312 315 318 322 327 333 342 5 18 32 100 65 61 52 40 41 32 24 24 31 35 35 34 34 34 33 33
325 323 320 320 322 318 317 319 309 313 315 312 315 311 307 311 311 314 320 324 340 358 15 41 62 80 79 69 62 58 50 42 32 25 29 32 29 24 19 14 12 14 18 21